TimeMDT,TemperatureF,Dew PointF,Humidity,Sea Level PressureIn,VisibilityMPH,Wind Direction,Wind SpeedMPH,Gust SpeedMPH,PrecipitationIn,Events,Conditions,WindDirDegrees,DateUTC
12:53 AM,39.0,30.0,70,30.39,10.0,Calm,Calm,-,N/A,,Clear,0,2013-10-06 06:53:00
1:53 AM,37.0,28.0,70,30.39,10.0,Calm,Calm,-,N/A,,Clear,0,2013-10-06 07:53:00
2:53 AM,35.1,28.9,78,30.38,10.0,Calm,Calm,-,N/A,,Clear,0,2013-10-06 08:53:00
3:53 AM,30.9,27.0,85,30.38,10.0,WNW,3.5,-,N/A,,Clear,300,2013-10-06 09:53:00
4:53 AM,32.0,27.0,82,30.37,10.0,Calm,Calm,-,N/A,,Clear,0,2013-10-06 10:53:00
5:53 AM,30.9,28.0,89,30.37,10.0,Calm,Calm,-,N/A,,Clear,0,2013-10-06 11:53:00
6:53 AM,30.0,27.0,88,30.37,10.0,Calm,Calm,-,N/A,,Clear,0,2013-10-06 12:53:00
7:53 AM,28.9,27.0,92,30.39,10.0,WNW,3.5,-,N/A,,Clear,300,2013-10-06 13:53:00
8:53 AM,33.1,28.9,85,30.39,10.0,Calm,Calm,-,N/A,,Clear,0,2013-10-06 14:53:00
9:53 AM,35.1,32.0,89,30.38,10.0,Calm,Calm,-,N/A,,Clear,0,2013-10-06 15:53:00
10:53 AM,41.0,32.0,70,30.36,10.0,Calm,Calm,-,N/A,,Clear,0,2013-10-06 16:53:00
11:53 AM,46.9,32.0,56,30.32,10.0,ESE,3.5,-,N/A,,Clear,110,2013-10-06 17:53:00
12:53 PM,54.0,33.1,45,30.27,10.0,Calm,Calm,-,N/A,,Clear,0,2013-10-06 18:53:00
1:53 PM,57.0,32.0,39,30.23,10.0,Calm,Calm,-,N/A,,Clear,0,2013-10-06 19:53:00
2:53 PM,61.0,30.9,32,30.19,10.0,Calm,Calm,-,N/A,,Clear,0,2013-10-06 20:53:00
3:53 PM,62.1,33.1,34,30.16,10.0,Calm,Calm,-,N/A,,Clear,0,2013-10-06 21:53:00
4:53 PM,64.9,30.9,28,30.12,10.0,Calm,Calm,-,N/A,,Clear,0,2013-10-06 22:53:00
5:53 PM,64.0,33.1,31,30.10,10.0,Calm,Calm,-,N/A,,Clear,0,2013-10-06 23:53:00
6:53 PM,61.0,36.0,39,30.09,10.0,Calm,Calm,-,N/A,,Clear,0,2013-10-07 00:53:00
7:53 PM,50.0,36.0,59,30.10,10.0,North,4.6,-,N/A,,Clear,360,2013-10-07 01:53:00
8:53 PM,46.9,33.1,59,30.09,10.0,Calm,Calm,-,N/A,,Clear,0,2013-10-07 02:53:00
9:53 PM,46.9,30.9,54,30.08,10.0,Calm,Calm,-,N/A,,Clear,0,2013-10-07 03:53:00
10:53 PM,43.0,33.1,68,30.08,10.0,Calm,Calm,-,N/A,,Clear,0,2013-10-07 04:53:00
11:53 PM,42.1,32.0,67,30.06,10.0,Calm,Calm,-,N/A,,Clear,0,2013-10-07 05:53:00